sat.trackr.live / text

‹ back to catalog

CYGFM04

NORAD 41885 · 2016-078B

PAYLOAD INACTIVE UNKNOWN

§ Identity

Operator
Country
US
Launch date
2016-12-15
Launch site
ERAS
Launch vehicle
Mass (kg)
RCS (m²)
0.20

Purposes: earth_obs

External: N2YO · Heavens-Above · Gunter

§ Orbital elements

Epoch: 2026-09-20T04:16:57.616032Z

Period
91.89 min
Inclination
34.9318°
Eccentricity
0.0003142
Mean motion
15.67101457 rev/d
Perigee alt
365.1 km
Apogee alt
369.3 km
Semi-major
6,745.3 km
B*
2.6346e-4
RAAN
311.8982°
Arg perigee
43.0571°
Mean anomaly
317.0401°
Rev number
54,388

§ Raw data

CYGFM041 41885U 16078B   26263.17844463  .00029212  00000+0  26346-3 0  99932 41885  34.9318 311.8982 0003142  43.0571 317.0401 15.67101457543889

JSON: /api/v1/satellites/41885 · /tle

For live sub-satellite position, see the globe view (requires WebGL).

§ Visibility from observer

Set your observer location to see the next 7 days of passes ≥ 10°. The values pass through the URL so the page stays shareable.

No JS? Fill the form by hand. The geolocation button needs JavaScript.